Home   Weather   Shemya Island   Past weeks
Flag for USA

Past Weather in Shemya Island, Alaska, USA — Yesterday and Last 2 Weeks

Now
45 °F

Mostly cloudy.


Feels Like: 35 °F
Forecast: 46 / 41 °F
Wind: 30 mph from Southwest

Location: Adak

Current Time: Oct 15, 2019 at 8:16:18 am

Latest Report: Oct 15, 2019 at 6:56 am


Visibility: 10 mi

Pressure: 29.74 "Hg

Humidity: 82%

Dew Point: 40 °F

Location of Shemya IslandLocation

Past Weather in Shemya Island — Graph

°F

Shemya Island Temperature Yesterday

Maximum temperature yesterday: 54 °F (at 1:56 am)
Minimum temperature yesterday: 41 °F (at 3:56 pm)
Average temperature yesterday: 46 °F

High & Low Weather Summary for the Past Weeks

 TemperatureHumidityPressure
High54 °F (Oct 1, 12:56 pm)100% (Oct 2, 10:27 pm)30.48 "Hg (Oct 2, 10:27 pm)
Low37 °F (Oct 6, 5:56 am)52% (Oct 8, 1:56 pm)29.10 "Hg (Oct 14, 1:56 am)
Average48 °F84%30.07 "Hg
* Reported Sep 30 6:29 am — Oct 15 6:56 am, Shemya Island. Weather by CustomWeather, © 2019

Note: Actual official high and low records may vary slightly from our data, if they occured in-between our weather recording intervals... More about our weather records

Advertising

Shemya Island Weather History for the Previous 24 Hours

Scroll right to see more
 ConditionsComfort  
Time TempWeatherWind HumidityBarometerVisibility
6:56 am
Tue, Oct 15
45 °FMostly cloudy.30 mph82%29.74 "Hg10 mi
6:42 am45 °FMostly cloudy.29 mph81%29.74 "Hg10 mi
6:07 am45 °FMostly cloudy.25 mph81%29.76 "Hg10 mi
5:56 am45 °FMostly cloudy.28 mph82%29.76 "Hg10 mi
5:18 am45 °FOvercast.26 mph81%29.77 "Hg10 mi
4:56 am45 °FMostly cloudy.28 mph80%29.78 "Hg10 mi
3:56 am44 °FPassing clouds.30 mph79%29.78 "Hg9 mi
2:56 am43 °FPassing clouds.33 mph82%29.78 "Hg8 mi
2:14 am43 °FPassing clouds.28 mph81%29.79 "Hg7 mi
1:56 am43 °FPassing clouds.29 mph82%29.79 "Hg8 mi
1:12 am43 °FMostly cloudy.31 mph81%29.79 "Hg7 mi
12:56 am43 °FPassing clouds.24 mph82%29.79 "Hg7 mi
11:56 pm
Mon, Oct 14
44 °FPartly cloudy.23 mph79%29.77 "Hg7 mi
10:56 pm45 °FPassing clouds.25 mph63%29.75 "Hg10 mi
9:56 pm44 °FPassing clouds.29 mph79%29.74 "Hg8 mi
8:56 pm44 °FPassing clouds.33 mph65%29.70 "Hg10 mi
7:56 pm44 °FPassing clouds.24 mph71%29.68 "Hg10 mi
6:56 pm45 °FPassing clouds.29 mph71%29.66 "Hg10 mi
5:56 pm46 °FPartly sunny.31 mph71%29.64 "Hg8 mi
4:56 pm47 °FPartly sunny.30 mph56%29.62 "Hg10 mi
3:56 pm41 °FLight rain. Mostly cloudy.30 mph82%29.61 "Hg3 mi
2:56 pm47 °FMostly cloudy.32 mph59%29.59 "Hg10 mi
1:56 pm48 °FPartly sunny.35 mph59%29.57 "Hg10 mi
12:56 pm47 °FPartly sunny.43 mph59%29.54 "Hg10 mi
11:56 am46 °FMostly cloudy.33 mph61%29.52 "Hg10 mi
10:56 am44 °FBroken clouds.44 mph63%29.48 "Hg10 mi
9:56 am44 °FCloudy.25 mph65%29.44 "Hg10 mi
8:56 am42 °FLight rain. Cloudy.35 mph82%29.40 "Hg7 mi
Weather by CustomWeather, © 2019

See weather overview